TA2R-16 Weather Reports


time (UTC)temp
C
wind
direction
speed
KPH
gust
KPH
rain 1hr
cm
rain 24hr
cm
rain mn
cm
humidity
%
barometer
mb
20260507050002 37 0 0.0 0.0 0.00 0.00 0.00 17 1006.8
20260507043002 35 0 0.0 0.0 0.00 0.00 0.00 20 1006.5
20260507040002 32 0 0.0 0.0 0.00 0.00 0.00 25 1006.3
20260507030002 25 0 0.0 0.0 0.00 0.00 0.00 36 1006.0
20260507023002 25 0 0.0 0.0 0.00 0.00 0.00 37 1006.0
20260507020002 25 0 0.0 0.0 0.00 0.00 0.00 36 1005.8
20260507013001 26 0 0.0 0.0 0.00 0.00 0.00 36 1005.8
20260507010002 26 0 0.0 0.0 0.00 0.00 0.00 36 1005.8
20260507003002 26 0 0.0 0.0 0.00 0.00 0.00 36 1005.9
20260507000002 26 0 0.0 0.0 0.00 0.00 0.00 37 1005.8
20260506233001 26 0 0.0 0.0 0.00 0.00 0.00 37 1006.1
20260506230001 26 0 0.0 0.0 0.00 0.00 0.00 37 1006.1
20260506223003 26 0 0.0 0.0 0.00 0.00 0.00 37 1006.0
20260506220002 26 0 0.0 0.0 0.00 0.00 0.00 36 1006.1
20260506213003 27 0 0.0 0.0 0.00 0.00 0.00 36 1006.2
20260506210003 27 0 0.0 0.0 0.00 0.00 0.00 35 1006.2
20260506203002 27 0 0.0 0.0 0.00 0.00 0.00 35 1006.1
20260506200002 27 0 0.0 0.0 0.00 0.00 0.00 35 1006.0
20260506193002 28 0 0.0 0.0 0.00 0.00 0.00 35 1005.9
20260506190004 28 0 0.0 0.0 0.00 0.00 0.00 35 1005.6
20260506183002 29 0 0.0 0.0 0.00 0.00 0.00 35 1005.3
20260506180003 29 0 0.0 0.0 0.00 0.00 0.00 34 1005.1
20260506173002 30 0 0.0 0.0 0.00 0.00 0.00 32 1004.9
20260506170002 31 0 0.0 0.0 0.00 0.00 0.00 32 1004.8
20260506163002 31 0 0.0 0.0 0.00 0.00 0.00 31 1004.7
20260506153002 33 0 0.0 0.0 0.00 0.00 0.00 25 1004.8
20260506150002 33 0 0.0 0.0 0.00 0.00 0.00 25 1004.7
20260506143001 33 0 0.0 0.0 0.00 0.00 0.00 26 1004.8
20260506140003 33 0 0.0 0.0 0.00 0.00 0.00 25 1004.9
20260506133002 33 0 0.0 0.0 0.00 0.00 0.00 25 1004.8
20260506130003 33 0 0.0 0.0 0.00 0.00 0.00 24 1004.9
20260506123003 34 0 0.0 0.0 0.00 0.00 0.00 24 1005.0
20260506120002 34 0 0.0 0.0 0.00 0.00 0.00 24 1005.1
20260506113002 34 0 0.0 0.0 0.00 0.00 0.00 23 1005.5
20260506110002 34 0 0.0 0.0 0.00 0.00 0.00 22 1005.6
20260506103002 34 0 0.0 0.0 0.00 0.00 0.00 21 1005.6
20260506100002 34 0 0.0 0.0 0.00 0.00 0.00 21 1005.6
20260506093002 35 0 0.0 0.0 0.00 0.00 0.00 21 1005.9
20260506090002 35 0 0.0 0.0 0.00 0.00 0.00 21 1005.9
20260506083001 35 0 0.0 0.0 0.00 0.00 0.00 21 1005.8
20260506073004 39 0 0.0 0.0 0.00 0.00 0.00 17 1005.9